Regional Weather Roundup
Issued by NWS Dallas/Fort Worth, TX

Current Version | Previous Version | Text Only | Print | Product List | Glossary On
Versions: 1 2 3 4 5 6 7 8 9 10 11 12 13 14 15 16 17 18 19 20 21 22 23 24 25 26 27 28 29 30 31 32 33 34 35 36 37 38 39 40 41 42 43 44 45 46 47 48 49 50
000
ASUS44 KFWD 190015
RWRFWD
NORTH TEXAS HOURLY WEATHER ROUNDUP
NATIONAL WEATHER SERVICE FORT WORTH TX
700 PM CDT TUE JUN 18 2019

NOTE: "FAIR" INDICATES FEW OR NO CLOUDS BELOW 12,000 FEET WITH NO
SIGNIFICANT WEATHER AND/OR OBSTRUCTIONS TO VISIBILITY.

TXZ118-119-190100-
DALLAS/FORT WORTH METROPLEX

CITY           SKY/WX    TMP DP  RH WIND       PRES   REMARKS
DFW AIRPORT    FAIR      90  67  46 SE5       29.80F HX  93
6HR MIN TEMP:  87; 6HR MAX TEMP:  93;

DALLAS LOVE    FAIR      92  65  40 S8        29.81F HX  94
6HR MIN TEMP:  88; 6HR MAX TEMP:  94;

FTW MEACHAM    FAIR      90  68  48 S7        29.81F HX  94
6HR MIN TEMP:  84; 6HR MAX TEMP:  91;

DAL-EXECUTIVE  SUNNY     90  64  43 W6        29.82F HX  91
FTW-ALLIANCE   MOSUNNY   91  64  40 S6        29.81F HX  93
FTW-NAS-JRB    FAIR      92  67  43 S7        29.81F HX  95
6HR MIN TEMP:  85; 6HR MAX TEMP:  93;

FTW-SPINKS     MOSUNNY   91  66  43 S8        29.84F HX  94
ARLINGTON      FAIR      90  67  46 S7        29.82F HX  93
6HR MIN TEMP:  87; 6HR MAX TEMP:  93;

GRAND PRAIRIE  SUNNY     90  64  43 SE7       29.83F HX  91
ADDISON        SUNNY     91  63  38 W7        29.83F HX  92
MESQUITE       SUNNY     90  70  51 SE7       29.83F HX  95
LANCASTER      FAIR      90  67  47 S7        29.84F HX  93
6HR MIN TEMP:  86; 6HR MAX TEMP:  91;

$$

TXZ091>094-102>105-117-120-121-131>134-190100-
NORTH CENTRAL TEXAS

CITY           SKY/WX    TMP DP  RH WIND       PRES   REMARKS
SHRMAN/DENISON NOT AVBL
GAINESVILLE    FAIR      87  67  51 CALM      29.84F
6HR MIN TEMP:  85; 6HR MAX TEMP:  89;

BOWIE          FAIR      87  69  53 S3        29.83F HX  91
6HR MIN TEMP:  84; 6HR MAX TEMP:  89;

BRIDGEPORT     FAIR      88  69  53 CALM      29.83F HX  93
6HR MIN TEMP:  83; 6HR MAX TEMP:  90;

DECATUR        FAIR      89  68  50 SE5       29.83F HX  92
6HR MIN TEMP:  85; 6HR MAX TEMP:  89;

DENTON         FAIR      90  67  46 W5        29.81F HX  93
6HR MIN TEMP:  86; 6HR MAX TEMP:  92;

MCKINNEY       FAIR      89  67  47 SE10      29.81F HX  92
6HR MIN TEMP:  87; 6HR MAX TEMP:  90;

BONHAM         FAIR      87  69  53 S6        29.82F HX  91
6HR MIN TEMP:  85; 6HR MAX TEMP:  89; 6HR PCP:  0.01;

GREENVILLE     FAIR      90  70  51 S7        29.84S HX  95
ROCKWALL       FAIR      89  68  50 SE6       29.83F HX  92
6HR MIN TEMP:  87; 6HR MAX TEMP:  91;

TERRELL        FAIR      89  69  51 S9        29.83F HX  93
6HR MIN TEMP:  88; 6HR MAX TEMP:  91;

WAXAHACHIE     FAIR      90  69  50 S6        29.85F HX  94
6HR MIN TEMP:  85; 6HR MAX TEMP:  91;

CLEBURNE       FAIR      90  68  48 SE8       29.85F HX  93
GRANBURY       FAIR      92  65  39 S7        29.84F HX  94
6HR MIN TEMP:  83; 6HR MAX TEMP:  93;

$$

TXZ083>090-098>101-113>116-127>130-139>142-154-155-190100-
WESTERN NORTH TEXAS

CITY           SKY/WX    TMP DP  RH WIND       PRES   REMARKS
WICHITA FALLS  FAIR      88  70  55 S10       29.79F HX  93
6HR MIN TEMP:  87; 6HR MAX TEMP:  91;

WF-KICKAPOO    FAIR      91  67  46 S6        29.82F HX  94
6HR MIN TEMP:  86; 6HR MAX TEMP:  92;

VERNON         FAIR      91  66  44 S8        29.81F HX  93
6HR MIN TEMP:  71; 6HR MAX TEMP:  93;

ABILENE        FAIR      88  50  27 S7        29.84F
6HR MIN TEMP:  84; 6HR MAX TEMP:  92;

ABILENE-DYESS  FAIR      89  68  49 S8        29.83F HX  92
6HR MIN TEMP:  84; 6HR MAX TEMP:  92;

GRAHAM         FAIR      90  72  55 SE3       29.81  HX  96
BRECKENRIDGE   FAIR      90  69  50 S7        29.83F HX  95
6HR MIN TEMP:  87; 6HR MAX TEMP:  92;

CISCO          PTSUNNY   88  73  62 S6        29.87F HX  96
EASTLAND       FAIR      87  70  57 S7        29.85F HX  92
6HR MIN TEMP:  87; 6HR MAX TEMP:  89;

RANGER         FAIR      86  70  57 SE6       29.86F HX  91
6HR MIN TEMP:  83; 6HR MAX TEMP:  88;

MINERAL WELLS  FAIR      90  67  46 S9        29.81F HX  93
6HR MIN TEMP:  85; 6HR MAX TEMP:  93;

STEPHENVILLE   FAIR      89  68  50 S6        29.88F HX  92
6HR MIN TEMP:  85; 6HR MAX TEMP:  90;

COMANCHE       FAIR      87  71  59 S5        29.86F HX  92
6HR MIN TEMP:  84; 6HR MAX TEMP:  90;

BROWNWOOD      FAIR      88  73  62 SE6       29.86S HX  96
COLEMAN        FAIR      89  71  55 S8        29.86F HX  94
6HR MIN TEMP:  82; 6HR MAX TEMP:  90;

BRADY          FAIR      88  70  55 S6        29.87S HX  92
$$

TXZ143>147-156>162-174-175-190100-
CENTRAL TEXAS

CITY           SKY/WX    TMP DP  RH WIND       PRES   REMARKS
WACO           FAIR      90  70  51 S6        29.82F HX  95
6HR MIN TEMP:  88; 6HR MAX TEMP:  94;

WACO-TSTC      SUNNY     91  68  46 S3        29.83F HX  95
WACO-MCGREGOR  FAIR      89  75  63 S6        29.84F HX  99
6HR MIN TEMP:  86; 6HR MAX TEMP:  95;

HILLSBORO      FAIR      89  70  54 SE7       29.84F HX  94
CORSICANA      FAIR      89  71  55 SE8       29.85F HX  95
6HR MIN TEMP:  85; 6HR MAX TEMP:  90;

MEXIA          FAIR      88  70  55 SE5       29.84F HX  93
6HR MIN TEMP:  84; 6HR MAX TEMP:  89;

HEARNE         FAIR      89  76  63 CALM      29.85F HX 100
6HR MIN TEMP:  84; 6HR MAX TEMP:  92;

CAMERON        FAIR      89  71  54 S6        29.84F HX  95
6HR MIN TEMP:  87; 6HR MAX TEMP:  92;

TEMPLE         FAIR      88  74  63 SE6       29.85F HX  96
6HR MIN TEMP:  84; 6HR MAX TEMP:  93;

KILLEEN        FAIR      88  72  59 SE5       29.84F HX  94
6HR MIN TEMP:  83; 6HR MAX TEMP:  90;

KILLEEN-SKYLRK FAIR      90  71  53 S7        29.85F HX  96
6HR MIN TEMP:  85; 6HR MAX TEMP:  93;

FORT HOOD      FAIR      89  70  52 S8        29.81F HX  94
GATESVILLE     FAIR      90  70  51 S5        29.87S HX  95
HAMILTON       FAIR      88  70  55 S6        29.88S HX  92
6HR MIN TEMP:  83; 6HR MAX TEMP:  91;

$$

TXZ095>097-106>112-122>126-135>138-148>153-164>167-190100-
EAST TEXAS

CITY           SKY/WX    TMP DP  RH WIND       PRES   REMARKS
PARIS          FAIR      88  71  57 S9        29.83F HX  94
6HR MIN TEMP:  86; 6HR MAX TEMP:  90;

SULPHUR SPRNGS FAIR      90  67  46 S7        29.85F HX  93
6HR MIN TEMP:  90; 6HR MAX TEMP:  94;

MOUNT PLEASANT FAIR      88  68  52 S5        29.84F HX  91
6HR MIN TEMP:  85; 6HR MAX TEMP:  89;

GILMER         FAIR      87  69  54 S6        29.84S HX  91
6HR MIN TEMP:  84; 6HR MAX TEMP:  89;

MINEOLA        FAIR      88  70  55 CALM      29.84S HX  92
TYLER          FAIR      89  67  47 S5        29.84F HX  92
6HR MIN TEMP:  87; 6HR MAX TEMP:  91;

LONGVIEW       FAIR      89  70  53 SW6       29.83F HX  94
6HR MIN TEMP:  87; 6HR MAX TEMP:  91;

MARSHALL       FAIR      86  70  58 CALM      29.86S HX  90
6HR MIN TEMP:  85; 6HR MAX TEMP:  90;

ATHENS         FAIR      88  70  55 S3        29.83S HX  92
PALESTINE      FAIR      88  70  54 SW5       29.86S HX  93
JACKSONVILLE   FAIR      88  68  52 CALM      29.88S HX  91
HENDERSON      FAIR      87  68  52 CALM      29.86S HX  91
6HR MIN TEMP:  84; 6HR MAX TEMP:  90;

CENTER           N/A     88  68  51 CALM      29.86S HX  91
6HR MIN TEMP:  85; 6HR MAX TEMP:  89;

NACOGDOCHES    FAIR      88  74  63 CALM      29.86S HX  96
6HR MIN TEMP:  88; 6HR MAX TEMP:  92;

LUFKIN         FAIR      88  70  55 W6        29.85S HX  93
6HR MIN TEMP:  86; 6HR MAX TEMP:  90;

$$

SUPPLEMENTAL OBSERVATIONS (NWS FORT WORTH AREA)

CITY           SKY/WX    TMP DP  RH WIND       PRES   REMARKS
CADDO GRASSLND   N/A     90  70  51 S3          N/A  HX  95
LBJ GRASSLAND    N/A     90  70  51 SE5         N/A  HX  95
POSSUM KINGDOM   N/A     90  70  51 S7          N/A  HX  95
GRANBURY         N/A     91  64  40 S7          N/A  HX  93
COMANCHE         N/A     88  70  55 S6          N/A  HX  92
MCGREGOR         N/A     90  70  51 S6          N/A  HX  95



USA.gov is the U.S. government's official web portal to all federal, state and local government web resources and services.